Marion, IN

10:16 AM EDT on July 28, 2017 (GMT -0400)
Marion Municipal

Weather History for KMZZ - October, 2013

Change the Weather History Date:

Sunday, October 20, 2013

  Actual Average (KMIE) Record (KMIE)
Temperature  
Mean Temperature 48 °F -  
Max Temperature 59 °F 59 °F 80 °F (1963)
Min Temperature 38 °F 40 °F 25 °F (1991)
Degree Days  
Heating Degree Days 16    
Moisture  
Dew Point 36 °F    
Average Humidity 69    
Maximum Humidity 83    
Minimum Humidity 47    
Precipitation  
Precipitation 0.01 in - - ()
Sea Level Pressure  
Sea Level Pressure 29.93 in    
Wind  
Wind Speed 12 mph (SSW)    
Max Wind Speed 24 mph    
Max Gust Speed 29 mph    
Visibility 10 miles    
Events      
Averages and records for this station are not official NWS values.
T = Trace of Precipitation, MM = Missing Value Source: NWS Daily Summary

Daily Weather History Graph

Daily Weather History Graph

Search for Another Location

Airport or City:

Trip Planner

Search our weather history database for the weather conditions in past years. The results will help you decide how hot, cold, wet, or windy it might be!

Date:

Astronomy

Oct. 20, 2013 Rise Set
Actual Time 7:59 AM EDT 6:54 PM EDT
Civil Twilight 7:31 AM EDT 7:22 PM EDT
Nautical Twilight 6:59 AM EDT 7:54 PM EDT
Astronomical Twilight 6:28 AM EDT 8:25 PM EDT
Moon 8:02 PM EDT (10/20) 9:36 AM EDT (10/20)
Length of Visible Light 11h 50m
Length of Day
10h 55m
Full, 97% of the Moon is Illuminated
Oct 20
Full
Oct 26
Last Quarter
Nov 3
New
Nov 10
First Quarter
Nov 17
Full

Hourly Weather History & Observations

Time (EDT) Temp. Windchill Dew Point Humidity Pressure Visibility Wind Dir Wind Speed Gust Speed Precip Events Conditions
12:15 AM 40.8 °F 35.0 °F 33.4 °F 75% 29.94 in 10.0 mi SSW 9.2 mph - N/A   Mostly Cloudy
12:35 AM 41.5 °F 35.9 °F 34.0 °F 75% 29.94 in 10.0 mi SSW 9.2 mph - N/A   Mostly Cloudy
12:55 AM 40.5 °F 34.6 °F 33.8 °F 77% 29.93 in 10.0 mi SSW 9.2 mph - N/A   Scattered Clouds
1:15 AM 40.8 °F 35.0 °F 33.8 °F 76% 29.93 in 10.0 mi SSW 9.2 mph - N/A   Mostly Cloudy
1:35 AM 41.9 °F 36.3 °F 34.3 °F 75% 29.93 in 10.0 mi SSW 9.2 mph - N/A   Overcast
1:55 AM 42.3 °F 37.3 °F 34.7 °F 75% 29.93 in 10.0 mi SSW 8.1 mph - N/A   Mostly Cloudy
2:15 AM 42.1 °F 37.1 °F 34.7 °F 75% 29.93 in 10.0 mi SSW 8.1 mph - N/A   Overcast
2:35 AM 42.3 °F 36.8 °F 34.7 °F 75% 29.93 in 10.0 mi SSW 9.2 mph - N/A   Overcast
2:55 AM 42.6 °F 36.8 °F 34.7 °F 74% 29.93 in 10.0 mi SSW 10.4 mph - N/A   Overcast
3:15 AM 42.6 °F 36.8 °F 34.7 °F 74% 29.92 in 10.0 mi SSW 10.4 mph - N/A   Overcast
3:35 AM 41.9 °F 35.9 °F 34.2 °F 74% 29.92 in 10.0 mi SSW 10.4 mph - N/A   Mostly Cloudy
3:55 AM 41.0 °F 34.7 °F 34.0 °F 76% 29.91 in 10.0 mi SSW 10.4 mph - N/A   Scattered Clouds
4:15 AM 40.5 °F 34.1 °F 33.8 °F 77% 29.91 in 10.0 mi SSW 10.4 mph - N/A   Clear
4:35 AM 40.3 °F 33.4 °F 33.8 °F 78% 29.91 in 10.0 mi SSW 11.5 mph - N/A   Clear
4:55 AM 40.1 °F 33.6 °F 33.8 °F 78% 29.91 in 10.0 mi SSW 10.4 mph - N/A   Clear
5:15 AM 39.7 °F 33.2 °F 33.8 °F 79% 29.91 in 10.0 mi SSW 10.4 mph - N/A   Clear
5:35 AM 39.6 °F 32.5 °F 33.8 °F 80% 29.91 in 10.0 mi SSW 11.5 mph - N/A   Clear
5:55 AM 39.6 °F 33.5 °F 33.8 °F 80% 29.91 in 10.0 mi SSW 9.2 mph - N/A   Clear
6:15 AM 39.2 °F 33.0 °F 33.8 °F 81% 29.91 in 10.0 mi SSW 9.2 mph - N/A   Scattered Clouds
6:35 AM 39.6 °F 33.0 °F 34.2 °F 81% 29.91 in 10.0 mi SSW 10.4 mph - N/A   Overcast
6:55 AM 40.1 °F 34.1 °F 34.3 °F 80% 29.92 in 10.0 mi SW 9.2 mph - N/A   Mostly Cloudy
7:15 AM 39.6 °F 33.5 °F 34.2 °F 81% 29.92 in 10.0 mi SW 9.2 mph - N/A   Scattered Clouds
7:35 AM 39.0 °F 33.4 °F 34.0 °F 82% 29.93 in 10.0 mi SSW 8.1 mph - N/A   Clear
7:55 AM 38.7 °F 32.9 °F 33.8 °F 83% 29.93 in 10.0 mi SSW 8.1 mph - N/A   Clear
8:15 AM 38.5 °F 32.1 °F 33.8 °F 83% 29.93 in 10.0 mi SSW 9.2 mph - N/A   Clear
8:35 AM 39.2 °F 33.0 °F 34.3 °F 83% 29.94 in 10.0 mi SSW 9.2 mph - N/A   Clear
8:55 AM 40.5 °F 34.6 °F 34.9 °F 80% 29.95 in 10.0 mi SSW 9.2 mph - N/A   Clear
9:15 AM 42.3 °F 36.3 °F 35.6 °F 77% 29.96 in 10.0 mi SSW 10.4 mph - N/A   Clear
9:35 AM 43.9 °F 37.5 °F 36.1 °F 74% 29.96 in 10.0 mi SW 12.7 mph 18.4 mph N/A   Clear
9:55 AM 45.3 °F 39.0 °F 36.7 °F 72% 29.97 in 10.0 mi SW 13.8 mph - N/A   Scattered Clouds
10:15 AM 46.6 °F - 37.0 °F 69% 29.97 in 10.0 mi SW 12.7 mph - N/A   Scattered Clouds
10:35 AM 47.8 °F - 37.2 °F 67% 29.97 in 10.0 mi SW 12.7 mph - N/A   Overcast
10:55 AM 48.9 °F - 37.4 °F 64% 29.97 in 10.0 mi SW 10.4 mph - N/A   Overcast
11:15 AM 49.3 °F - 37.6 °F 64% 29.97 in 10.0 mi SW 9.2 mph - N/A   Overcast
11:35 AM 50.0 °F - 37.8 °F 63% 29.97 in 10.0 mi SW 8.1 mph - N/A   Overcast
11:55 AM 51.3 °F - 38.3 °F 61% 29.97 in 10.0 mi SSW 9.2 mph - N/A   Mostly Cloudy
12:15 PM 52.5 °F - 38.5 °F 59% 29.97 in 10.0 mi South 11.5 mph - N/A   Clear
12:35 PM 54.3 °F - 38.8 °F 56% 29.96 in 10.0 mi SSW 10.4 mph - N/A   Clear
12:55 PM 55.2 °F - 38.7 °F 54% 29.96 in 10.0 mi SSW 12.7 mph - N/A   Clear
1:15 PM 56.8 °F - 38.8 °F 51% 29.95 in 10.0 mi SSW 15.0 mph 19.6 mph N/A   Clear
1:35 PM 58.3 °F - 38.8 °F 48% 29.94 in 10.0 mi SSW 15.0 mph - N/A   Clear
1:55 PM 59.7 °F - 39.4 °F 47% 29.93 in 10.0 mi SSW 16.1 mph 21.9 mph N/A   Clear
2:15 PM - - - N/A% 29.92 in 10.0 mi SW 17.3 mph 20.7 mph N/A   Scattered Clouds
2:35 PM - - - N/A% 29.92 in 10.0 mi SW 17.3 mph 24.2 mph N/A   Clear
2:55 PM - - - N/A% 29.91 in 10.0 mi SSW 20.7 mph 25.3 mph N/A   Scattered Clouds
3:15 PM - - - N/A% 29.91 in 10.0 mi SSW 20.7 mph 25.3 mph N/A   Mostly Cloudy
3:35 PM - - - N/A% 29.91 in 10.0 mi SW 24.2 mph 28.8 mph N/A   Mostly Cloudy
3:55 PM - - - N/A% 29.91 in 10.0 mi SSW 18.4 mph 27.6 mph N/A   Scattered Clouds
4:15 PM - - - N/A% 29.91 in 10.0 mi SW 20.7 mph 26.5 mph N/A   Clear
4:35 PM - - - N/A% 29.91 in 10.0 mi SSW 18.4 mph 27.6 mph N/A   Scattered Clouds
4:55 PM - - - N/A% 29.90 in 10.0 mi SW 21.9 mph 27.6 mph N/A   Scattered Clouds
5:15 PM - - - N/A% 29.90 in 10.0 mi SSW 18.4 mph 23.0 mph N/A   Scattered Clouds
5:35 PM - - - N/A% 29.90 in 10.0 mi SSW 16.1 mph - N/A   Scattered Clouds
5:55 PM - - - N/A% 29.90 in 10.0 mi SSW 19.6 mph 26.5 mph N/A   Clear
6:15 PM - - - N/A% 29.91 in 10.0 mi SSW 11.5 mph 16.1 mph N/A   Scattered Clouds
6:35 PM - - - N/A% 29.90 in 10.0 mi SSW 13.8 mph 18.4 mph N/A   Mostly Cloudy
6:55 PM - - - N/A% 29.90 in 10.0 mi SSW 13.8 mph - N/A   Mostly Cloudy
7:15 PM - - - N/A% 29.90 in 10.0 mi SSW 12.7 mph 20.7 mph N/A   Mostly Cloudy
7:35 PM - - - N/A% 29.91 in 10.0 mi SSW 15.0 mph - N/A   Scattered Clouds
7:55 PM 55.6 °F - 38.5 °F 53% 29.91 in 10.0 mi SSW 15.0 mph - N/A   Scattered Clouds
8:15 PM 55.4 °F - 38.7 °F 53% 29.91 in 10.0 mi South 16.1 mph - N/A   Overcast
8:35 PM 55.4 °F - 39.0 °F 54% 29.91 in 10.0 mi SSW 19.6 mph 24.2 mph N/A   Overcast
8:55 PM 55.4 °F - 38.8 °F 54% 29.91 in 10.0 mi SSW 19.6 mph 25.3 mph N/A   Overcast
9:15 PM 55.0 °F - 38.7 °F 54% 29.91 in 10.0 mi SSW 18.4 mph 25.3 mph N/A   Overcast
9:35 PM 54.5 °F - 38.7 °F 55% 29.92 in 10.0 mi SSW 18.4 mph 25.3 mph N/A   Overcast
9:55 PM 53.6 °F - 38.8 °F 57% 29.92 in 10.0 mi SSW 15.0 mph 26.5 mph N/A   Scattered Clouds
10:15 PM 52.7 °F - 39.2 °F 60% 29.92 in 10.0 mi SSW 17.3 mph 21.9 mph N/A   Clear
10:35 PM 52.5 °F - 39.2 °F 61% 29.92 in 10.0 mi SSW 18.4 mph 23.0 mph N/A   Mostly Cloudy
10:55 PM 52.5 °F - 39.4 °F 61% 29.93 in 10.0 mi SSW 16.1 mph 23.0 mph N/A   Overcast
11:15 PM 52.7 °F - 39.2 °F 60% 29.92 in 10.0 mi SSW 17.3 mph - N/A   Mostly Cloudy
11:35 PM 52.2 °F - 39.2 °F 61% 29.92 in 10.0 mi SSW 16.1 mph 21.9 mph N/A   Mostly Cloudy
11:55 PM 52.0 °F - 39.6 °F 63% 29.93 in 10.0 mi SSW 13.8 mph - N/A   Mostly Cloudy